2024-174C (61240 NORAD) Tracking and Keplerian Element Data

This shows tracking and keplerian element data for the satellite.

Feedback or suggestion? Click here.




ElementValue
Catalog61240
Name2024-174C
Epoch Orbit268
Epoch Day286.91182505
Epoch Year2024
RAAN291.8741
Inclination97.451
Eccentricity0.0014101
Argument of Perigee211.8251
Mean Anonmoly148.2131
Mean Motion15.16286582
Decay Rate0.00012063
L11 61240U 24174C 24286.91182505 .00012063 00000+0 62438-3 0 9991
L22 61240 97.4510 291.8741 0014101 211.8251 148.2131 15.16286582 2680



Live tracking and technical data element details for 2024-174C (NORAD 61240). 2024-174C can be tracked NOW for your location showing map with azimuth and elevation plus other details from your city location.







IsCatalogInMostPopularTable: catalog: 61240, numindb: 24
Update: records affected: 1



GetName: 61240 2024-174C

Hit Count: updated at: Fri, 06 Dec 2024 11:14:02 GMT